Location: Unspecified
(47.4992°N, 121.7766°W)
Time: 11:17:20
(UTC-07:00)

Okean 3 - Visible Passes

Search period start: 23 September 2019 00:00
Search period end: 03 October 2019 00:00
Orbit: 577 x 601 km, 82.5° (Epoch: 23 September)

Date Brightness Start Highest point End Pass type
(mag) Time Alt. Az. Time Alt. Az. Time Alt. Az.
23 Sep 3.5 06:12:15 10° S 06:16:26 89° SE 06:20:42 10° N visible
24 Sep 6.6 04:45:42 10° ESE 04:47:42 13° E 04:49:42 10° NE visible
24 Sep 3.5 06:20:14 10° SSW 06:24:23 62° WNW 06:28:35 10° N visible
25 Sep 6.2 04:52:30 10° SE 04:55:26 19° E 04:58:25 10° NE visible
26 Sep 5.6 04:59:42 10° SE 05:03:13 26° E 05:06:46 10° NNE visible
27 Sep 4.9 05:07:08 10° SSE 05:11:02 38° E 05:14:58 10° NNE visible
28 Sep 4.1 05:14:46 10° S 05:18:53 56° E 05:23:02 10° NNE visible
29 Sep 3.5 05:22:33 10° S 05:26:46 83° E 05:31:02 10° N visible
30 Sep 6.5 03:56:21 10° ESE 03:58:04 12° E 03:59:47 10° ENE visible
30 Sep 3.4 05:30:57 13° SSW 05:34:41 68° W 05:38:57 10° N visible
01 Oct 6.1 04:03:17 11° SE 04:05:48 18° E 04:08:38 10° NE visible
01 Oct 3.7 05:39:53 19° SW 05:42:39 46° WNW 05:46:47 10° N visible
02 Oct 5.6 04:12:06 20° ESE 04:13:33 25° E 04:17:02 10° NNE visible
02 Oct 4.2 05:48:41 22° WSW 05:50:39 32° WNW 05:54:31 10° N visible
